Location: Dehesa de la Cepeda
(40.6574°N, 4.3013°W)
Time: 08:21:52
(UTC+00:00)

Vanguard 3 - Pass Details

Date: 08 August 2021
Orbit: 510 x 3260 km, 33.3° (Epoch: 18 September)

Event Time Altitude Azimuth Distance (km) Brightness Sun altitude
Rises 22:31:18 0° 280° (W) 6,537 12.3 -27.8°
Reaches altitude 10° 22:36:05 10° 271° (W) 5,801 11.8 -28.3°
Maximum altitude 22:51:05 31° 218° (SW) 4,638 10.7 -29.6°
Enters shadow 22:56:27 28° 195° (SSW) 4,805 10.6 -30.0°
